Theta_e
326 326 325 324 324 324 324 324 324 323 324 324 324 325 325 325 325 325 325 325 325 326 327 327 328 327 325 326 325 327 327 317 311 309 306 304 313 321 331 337 334 337 330 305 304 303 300 297 302 299 301 299 301 302 302 301 298 297 293 288 290 287 286 289 290 291 291 292 291 289 292 296 292 293 297 296 297 294 296 299 298 303 309 313 315 314 314 314
326 325 325 324 324 324 324 324 324 323 323 323 324 324 324 324 324 324 325 324 325 325 327 326 326 327 327 326 328 327 322 315 307 306 305 315 330 336 332 335 338 334 318 304 303 300 298 298 298 298 301 301 301 302 301 301 298 293 289 292 292 286 289 291 290 293 292 295 291 291 289 294 295 293 295 295 293 294 297 297 296 301 303 308 313 313 314 319
325 325 324 324 324 324 324 324 323 323 323 323 323 323 324 324 324 324 324 324 324 325 325 325 326 327 327 327 326 327 318 308 302 300 306 324 333 338 338 338 337 331 305 303 299 300 299 297 296 297 295 297 295 299 298 300 298 293 293 292 287 290 289 290 291 293 290 291 291 291 290 292 294 293 294 296 292 293 295 295 295 297 300 304 310 315 318 322
325 324 324 324 324 324 324 323 322 322 323 323 323 323 323 324 323 323 323 323 324 324 325 325 326 326 326 327 327 324 314 302 296 299 304 328 331 339 339 336 337 325 303 301 297 298 296 296 295 297 296 294 293 297 298 298 300 295 291 287 293 289 293 292 288 290 288 290 291 290 289 292 292 292 295 292 295 293 293 293 299 298 298 302 311 315 320 321
324 324 324 324 324 324 323 322 322 322 323 322 322 322 323 323 322 322 322 322 323 324 324 325 325 325 327 326 326 318 304 294 297 299 306 334 335 340 338 337 331 308 306 297 298 296 297 298 296 293 295 294 294 295 293 294 294 292 292 291 290 289 292 291 288 288 288 288 290 288 293 293 292 293 291 294 293 294 296 298 296 298 299 307 311 315 320 321
324 324 324 324 324 323 322 322 322 322 323 322 322 322 322 322 322 322 322 322 322 323 324 324 325 325 325 325 319 313 299 288 301 307 327 338 337 338 337 334 324 302 300 299 299 298 299 299 299 298 292 294 293 294 293 292 293 296 290 288 289 288 292 290 288 288 288 289 290 290 293 292 293 293 289 292 296 294 293 294 294 295 300 310 314 317 319 320
324 324 324 324 323 322 322 322 322 323 322 322 321 321 321 321 321 321 321 321 322 322 323 323 325 325 324 322 312 305 296 297 303 312 331 336 336 336 333 327 318 302 301 300 298 300 297 296 297 292 290 290 291 291 292 293 291 291 292 288 292 289 292 288 290 286 286 290 291 290 291 293 290 294 290 291 293 294 291 291 289 293 312 314 314 316 319 320
323 323 323 322 322 322 322 322 322 322 321 321 321 321 321 320 320 320 321 321 321 322 322 323 323 325 324 310 300 298 301 297 303 309 331 334 326 321 313 303 303 301 301 300 298 296 295 296 297 291 292 293 292 293 293 293 292 293 290 289 290 289 289 286 285 285 286 288 288 289 293 291 290 291 289 292 295 294 292 300 305 310 311 313 314 315 318 319
323 322 322 321 321 321 321 322 322 321 321 321 321 320 320 320 320 319 320 320 320 321 322 323 323 324 322 303 297 294 296 305 307 311 320 319 311 305 306 306 302 303 299 297 297 297 298 294 294 295 294 291 292 292 290 293 291 290 291 289 289 291 289 289 289 287 287 289 288 292 290 290 289 290 292 294 291 291 295 304 306 308 310 310 312 314 316 317
323 322 321 320 320 321 321 322 321 321 320 320 320 319 319 319 319 319 319 319 320 320 321 322 323 323 311 298 295 291 299 306 309 312 311 314 308 305 304 302 301 299 300 298 296 296 298 294 296 295 293 291 292 292 288 293 291 289 289 289 290 289 290 289 290 289 288 289 288 291 290 291 291 290 291 290 288 292 299 300 302 306 307 309 312 314 315 316
322 322 321 320 320 321 322 321 321 320 320 319 319 319 319 319 319 319 319 319 320 320 321 322 322 316 305 296 293 292 306 311 308 305 309 308 306 304 304 302 300 300 299 298 297 297 298 295 294 295 298 294 292 290 290 292 290 291 290 290 289 288 289 289 290 289 290 293 287 290 290 290 291 290 291 292 289 290 296 297 300 300 303 308 311 312 314 315
322 321 321 320 320 321 321 321 321 320 320 319 318 318 318 318 318 318 319 319 320 321 321 322 322 306 297 295 293 297 300 310 307 304 307 307 305 304 303 303 299 300 300 298 298 300 298 295 296 295 292 295 291 290 291 290 291 289 291 290 289 286 290 289 291 290 290 292 291 290 292 290 290 291 291 290 289 293 295 298 298 299 300 303 308 311 313 314
321 321 321 320 320 320 321 320 320 320 320 319 317 317 317 317 318 318 318 319 320 320 322 322 316 306 298 293 295 301 307 307 305 304 305 304 303 302 303 303 300 298 300 300 298 300 295 296 297 295 295 291 289 290 291 290 287 289 288 288 287 288 286 291 288 289 292 292 288 290 287 286 290 294 292 288 288 292 294 294 298 299 299 299 301 306 309 313
321 320 320 320 320 320 320 320 319 319 319 318 317 317 317 317 317 318 319 318 320 321 321 320 311 304 296 290 297 306 303 306 304 305 304 306 304 305 301 302 301 301 303 301 300 298 296 295 296 294 294 292 292 295 293 288 287 291 288 285 283 287 285 288 289 290 293 292 287 290 287 284 283 285 286 287 289 293 293 294 293 295 296 296 297 301 305 308
320 320 320 320 319 319 318 319 319 319 319 318 317 316 317 316 318 318 319 318 321 321 320 314 304 297 292 292 298 307 319 305 304 306 304 304 302 302 302 303 301 300 300 301 301 299 297 298 299 295 294 292 293 291 286 283 283 282 288 284 283 285 285 286 289 287 291 292 289 290 287 288 288 289 287 286 288 290 292 291 291 291 293 294 294 296 300 304
320 319 319 319 319 319 318 319 319 318 318 318 317 316 316 316 317 318 319 319 320 321 310 305 305 294 290 289 299 318 304 301 303 304 303 304 303 303 301 300 300 298 299 300 298 298 297 298 294 291 292 292 290 287 285 287 283 280 283 281 284 282 282 284 290 286 289 291 290 290 287 283 289 289 289 287 289 289 291 290 289 289 290 291 292 294 295 297
320 319 319 319 319 319 318 318 318 318 318 317 317 316 316 317 317 318 319 318 313 310 305 301 301 296 290 297 305 300 298 301 303 305 303 303 302 301 301 300 299 298 298 300 299 299 296 294 292 292 289 288 284 288 285 283 281 286 281 282 281 282 283 284 286 289 289 290 290 289 288 285 289 288 287 286 290 289 290 292 291 290 290 291 291 291 293 294
320 319 319 319 319 319 318 318 318 318 318 317 315 315 312 316 318 318 314 308 306 306 305 304 299 293 292 297 294 296 300 300 304 302 302 301 300 300 298 296 296 297 298 297 297 296 295 292 289 290 288 288 287 287 285 281 284 283 284 282 284 281 281 283 286 287 289 288 289 288 287 290 291 292 292 289 289 290 291 291 292 291 291 292 291 291 292 293
320 319 318 318 319 318 318 318 318 317 317 316 316 317 317 317 307 302 303 300 294 291 290 294 292 284 285 291 296 300 303 304 303 302 301 302 300 298 299 297 298 299 295 293 293 294 292 291 291 288 287 284 286 287 287 285 285 287 287 285 282 284 284 283 282 283 287 287 287 286 289 290 290 291 292 290 288 289 290 288 288 289 289 290 291 292 293 294
319 319 319 319 318 318 318 318 318 317 317 312 310 305 296 294 294 295 299 297 289 289 291 294 292 289 294 293 298 302 302 303 301 299 303 302 301 298 296 297 297 294 293 291 293 292 289 287 286 286 288 287 288 287 285 283 288 285 284 282 283 282 283 283 283 286 285 287 287 286 285 284 288 290 292 292 290 289 290 291 292 292 292 292 292 292 293 294
319 318 318 318 318 318 318 317 317 316 316 307 305 293 288 291 288 285 292 295 292 291 291 293 294 294 296 298 299 299 300 298 299 300 303 304 299 300 295 295 294 292 289 288 292 292 292 287 286 287 288 289 289 284 285 286 285 287 284 283 283 284 285 285 287 286 284 288 285 282 284 288 289 291 291 291 289 291 292 292 291 292 293 293 293 293 293 294
318 318 318 318 318 318 318 317 317 316 312 305 299 290 288 291 293 293 293 288 292 292 293 294 293 296 298 299 301 299 298 295 298 300 303 302 298 297 293 293 289 291 289 289 289 290 287 287 287 287 286 285 283 284 284 286 284 281 284 282 283 283 281 285 286 286 286 288 284 282 285 288 289 290 291 290 291 291 291 292 293 293 293 293 292 293 293 292
318 318 318 318 318 318 317 317 316 312 304 303 298 295 294 298 300 298 292 288 290 293 293 292 293 293 296 299 300 301 296 292 294 298 300 301 295 295 292 291 289 288 288 290 289 285 285 285 288 287 287 288 283 283 285 284 282 282 281 282 282 281 285 285 286 286 286 285 288 286 286 289 288 287 288 291 291 290 289 289 290 290 292 293 293 292 292 292
318 318 318 318 318 317 317 316 314 309 300 300 298 296 299 302 299 294 291 286 287 291 293 293 292 293 294 297 301 297 294 294 295 296 300 298 296 294 294 290 288 288 289 288 289 289 286 286 285 286 287 290 286 284 286 285 285 283 283 280 281 283 283 281 284 283 282 284 283 285 285 287 282 287 291 287 283 284 286 285 287 289 290 292 292 291 291 292
318 317 317 317 317 317 316 314 307 304 303 300 296 297 300 300 298 298 288 286 284 289 294 294 297 297 299 304 303 299 294 294 295 297 300 298 291 293 292 290 290 288 288 285 287 287 286 286 285 287 286 286 286 284 285 287 283 285 283 283 283 285 285 282 284 285 281 286 283 285 284 279 279 279 283 286 283 287 285 287 290 291 288 287 288 290 291 292
317 317 317 317 317 316 315 307 304 305 301 297 297 296 297 298 299 296 287 280 280 282 290 288 298 294 303 297 301 297 296 293 297 297 300 296 297 293 291 290 290 289 284 287 287 285 285 285 286 287 287 286 286 286 285 286 282 283 285 284 283 284 284 283 283 283 281 281 284 281 283 277 280 282 285 281 282 285 287 286 289 289 288 287 288 289 288 289
317 317 317 317 317 315 307 299 306 304 297 296 299 298 298 300 296 295 287 278 277 285 285 291 292 293 299 297 298 296 288 289 298 297 297 299 296 296 293 288 287 287 287 288 286 285 285 285 285 286 285 285 284 283 285 286 285 284 284 283 284 285 285 284 284 282 280 280 284 279 278 279 280 285 282 281 282 285 286 289 290 289 284 285 285 286 286 287
317 317 317 317 316 314 305 305 304 300 295 299 298 301 297 297 294 290 282 272 271 288 286 286 293 298 298 297 296 291 291 295 292 295 296 297 296 292 290 287 290 288 286 288 283 286 284 285 284 285 285 283 285 283 284 286 284 283 283 284 285 286 284 282 283 281 281 282 281 278 285 281 277 282 281 281 288 287 287 288 289 287 286 285 286 287 287 287
317 317 316 316 315 312 308 305 303 299 298 297 299 302 300 294 289 288 278 270 283 282 296 289 300 297 294 296 292 291 292 292 289 292 295 295 296 293 289 286 287 287 287 287 286 286 288 286 286 288 287 285 283 284 283 286 287 284 283 283 282 281 281 281 280 283 278 278 276 280 281 279 280 280 281 281 286 285 287 289 288 287 287 286 287 288 288 289
317 317 316 315 310 306 303 305 301 301 300 299 301 302 299 292 289 283 276 268 287 281 288 290 291 289 291 291 290 290 291 290 291 293 293 292 293 292 291 289 290 289 289 288 286 286 288 291 289 286 286 285 285 285 284 285 285 285 284 287 284 281 279 278 277 276 277 275 276 277 277 280 278 281 284 286 286 287 288 286 284 287 285 286 286 287 289 289
317 317 315 313 305 305 304 297 299 300 301 301 303 302 294 287 282 276 269 279 286 285 286 286 286 292 290 288 287 287 289 288 292 291 290 292 291 290 290 290 290 286 285 285 285 285 287 287 289 286 286 285 286 286 286 284 284 285 283 281 285 283 278 277 271 275 273 270 272 275 278 277 277 278 281 282 282 282 285 288 291 289 287 288 288 288 288 288
316 316 315 310 308 308 302 299 303 302 302 302 304 298 290 280 281 277 275 287 282 283 283 283 284 288 290 291 288 288 289 288 290 290 290 287 288 288 289 286 288 280 281 282 282 284 286 287 286 289 288 287 285 287 284 285 282 283 283 285 281 271 270 275 271 275 274 271 278 277 277 278 280 282 283 281 285 285 283 287 288 286 287 287 288 289 287 288
315 314 314 311 309 305 304 306 305 305 304 302 301 291 285 279 273 281 280 282 279 284 283 287 286 288 289 287 286 287 288 289 287 289 287 287 287 287 287 287 286 285 281 281 282 282 283 282 285 287 288 288 287 286 283 284 283 283 285 280 276 270 269 268 264 263 268 272 276 279 277 277 279 282 286 290 290 287 286 285 286 287 288 289 289 288 287 288
315 314 309 309 309 309 306 306 306 306 305 301 296 287 282 276 277 289 281 280 282 282 285 283 285 286 287 287 286 289 286 287 289 288 289 286 286 285 287 287 285 286 283 282 283 283 278 278 284 286 286 288 287 285 289 286 284 284 283 286 282 272 267 269 265 273 272 272 273 275 275 275 277 284 286 286 287 286 285 284 284 285 285 285 286 286 285 287
314 311 309 309 308 308 306 306 306 307 303 298 290 287 279 279 282 281 281 282 279 282 283 286 288 286 285 283 284 288 288 285 287 287 286 286 284 284 285 288 286 284 286 284 283 281 282 281 284 285 286 284 288 286 285 286 286 282 280 283 281 281 277 271 265 267 264 271 271 274 275 277 281 283 286 287 286 286 286 285 285 287 288 286 287 287 287 287
311 308 309 306 306 306 306 306 306 307 302 294 287 282 280 283 280 283 283 284 283 283 283 285 282 285 282 283 285 287 290 288 287 286 286 286 286 287 288 288 288 287 287 284 283 279 280 281 284 284 286 286 288 286 287 287 284 284 283 277 281 281 279 271 269 272 271 269 272 270 277 281 281 284 291 282 283 287 286 284 284 286 287 286 288 288 287 288
306 308 303 305 306 307 307 306 307 305 300 292 286 281 286 284 282 285 288 287 283 288 285 282 281 283 282 281 283 285 287 289 286 286 283 286 285 285 286 287 288 288 289 288 283 283 283 280 284 285 287 288 286 286 286 284 286 284 279 282 283 283 282 279 275 268 265 270 272 272 276 278 277 281 283 283 286 287 285 286 284 284 284 286 289 288 289 290
305 305 305 304 306 308 307 307 307 303 296 289 283 288 283 285 285 285 284 285 285 284 282 283 282 284 283 281 282 285 286 286 285 285 284 286 283 289 287 288 288 291 290 287 287 285 285 279 284 284 285 288 285 287 288 287 286 284 282 285 286 280 279 277 275 269 268 267 266 269 273 274 278 282 281 284 285 288 288 285 285 287 286 288 286 286 287 286
306 303 297 304 308 308 306 307 305 300 293 286 284 285 285 285 285 284 287 290 287 285 285 281 281 283 283 283 283 285 286 282 285 285 284 283 283 286 290 289 287 288 289 288 287 284 285 280 280 285 286 287 286 287 283 285 287 285 286 284 285 282 277 275 277 273 274 268 265 269 269 280 279 280 281 288 282 285 284 284 286 287 288 287 286 288 290 292
302 298 296 306 309 308 308 307 302 298 291 284 285 284 283 284 284 284 286 292 286 285 283 282 281 282 283 283 285 285 285 284 285 284 285 285 286 288 287 290 288 287 288 287 287 288 284 283 275 283 285 285 284 285 284 286 283 281 281 281 284 278 281 281 276 273 275 267 265 265 269 273 279 281 283 288 288 284 283 285 285 285 285 285 288 290 289 288
303 297 296 307 308 309 308 303 296 291 289 289 286 283 283 285 284 285 286 286 286 285 284 284 284 284 282 282 283 285 284 283 284 284 284 285 286 283 287 290 289 288 288 287 288 286 284 282 280 281 282 282 282 284 284 284 287 285 284 282 285 281 279 277 277 275 266 273 266 264 273 274 282 281 286 287 286 282 282 285 287 285 283 286 288 287 286 290
297 289 294 307 309 308 302 292 292 294 289 286 285 284 285 294 285 284 287 286 285 285 285 285 284 283 284 286 285 285 284 283 284 285 285 285 288 287 287 289 289 291 290 286 289 286 286 282 283 277 281 284 285 285 283 283 284 285 284 283 285 283 281 275 274 276 270 273 270 268 269 278 283 281 282 284 283 283 281 282 284 282 282 284 285 286 286 286
294 292 304 307 309 306 298 291 293 291 287 283 285 285 285 285 283 284 286 286 287 285 286 285 285 285 284 284 284 285 287 284 285 285 284 286 286 289 287 289 290 291 292 286 287 285 290 282 280 279 281 282 284 284 283 283 285 287 285 283 283 285 285 282 276 276 277 272 272 270 268 278 281 281 281 282 282 281 281 280 282 282 283 286 287 288 288 288
293 294 298 306 309 305 295 285 286 288 289 286 286 286 286 287 286 285 286 286 287 286 285 284 285 287 285 283 285 285 288 282 285 287 284 286 287 287 287 289 292 290 291 288 290 291 285 284 285 275 274 278 280 285 285 285 286 284 283 283 284 281 279 278 276 272 272 275 277 276 271 280 282 281 282 282 282 283 283 283 281 284 288 288 289 289 288 287
294 295 296 300 305 302 291 293 290 288 287 282 283 284 286 285 285 285 287 287 285 283 285 286 287 285 284 285 286 286 288 287 281 287 286 283 287 286 287 289 292 291 291 292 295 293 286 283 284 279 276 275 273 274 276 281 284 283 279 281 283 285 280 280 277 276 275 273 276 271 271 283 280 282 287 285 284 285 285 282 282 283 287 290 288 287 287 287
286 283 289 292 296 298 296 293 292 291 287 286 283 281 285 284 286 286 288 288 287 285 285 286 284 287 285 287 286 286 286 286 285 283 286 284 284 286 286 289 291 292 292 294 293 293 282 283 285 285 283 281 283 285 286 285 282 281 283 283 283 284 284 283 280 276 279 277 277 279 282 284 282 283 284 286 284 286 287 287 288 288 286 284 283 284 285 286
291 285 285 284 291 289 288 290 288 290 287 289 283 284 284 283 284 286 288 286 288 287 287 287 286 288 285 286 285 285 287 287 282 283 285 286 283 285 286 287 289 291 293 292 293 288 281 283 285 285 285 286 287 284 284 288 285 286 284 282 284 284 283 283 282 282 282 279 275 282 283 281 284 280 282 284 284 283 284 285 288 287 288 288 287 286 287 286
285 288 290 292 288 285 285 287 290 288 289 290 285 285 285 283 284 283 286 287 288 288 288 287 286 289 288 287 285 282 284 284 283 282 284 285 284 287 286 287 288 290 291 290 291 288 285 284 286 284 285 286 283 282 284 286 286 286 285 284 283 284 283 283 284 286 283 283 282 286 285 282 286 285 287 286 286 289 289 289 290 288 287 285 285 287 288 287
292 288 289 295 287 286 289 291 291 289 288 290 287 285 283 284 284 285 285 286 287 288 287 283 286 285 287 288 288 283 284 282 281 281 279 282 285 283 282 285 287 287 288 287 287 284 287 283 285 284 285 285 282 282 283 285 283 283 284 284 285 284 283 285 286 286 285 285 287 287 285 284 288 286 287 287 288 288 287 285 286 288 290 287 286 286 287 289
287 287 285 290 288 286 290 290 291 290 286 290 286 284 285 285 285 285 285 286 282 286 287 286 285 286 286 287 289 285 285 288 287 284 282 283 281 283 285 285 283 286 287 285 287 285 287 281 285 280 280 281 281 280 282 282 282 281 282 283 284 284 285 286 287 286 285 285 287 286 283 282 286 287 288 289 287 288 288 288 289 289 288 287 287 287 287 288
292 292 293 287 285 285 287 290 289 288 286 287 286 286 285 286 287 288 287 287 286 284 286 287 285 286 286 287 288 289 289 289 288 289 287 288 285 286 287 285 287 285 285 285 285 286 286 281 279 279 279 277 277 281 278 277 277 277 278 281 283 283 282 284 283 287 284 284 285 283 283 283 288 287 288 289 287 288 289 290 290 290 289 288 287 288 288 288
291 294 294 291 285 288 285 286 289 288 285 288 289 288 286 285 287 289 287 289 289 287 288 288 288 289 286 286 286 289 290 289 290 288 290 289 288 290 290 289 290 288 286 286 285 285 284 281 281 279 279 278 277 276 278 279 279 277 277 282 284 285 286 287 287 286 286 288 284 282 284 290 286 287 288 288 288 289 288 289 290 290 290 290 290 290 289 289
Wind_Speed
21 21 21 20 19 18 17 17 17 16 16 16 15 14 12 12 12 12 12 11 10 7 10 9 8 9 10 11 11 9 8 4 3 5 7 11 7 10 6 4 6 7 6 2 2 2 1 1 1 4 2 3 2 1 1 3 1 1 2 6 1 2 3 7 7 10 1 4 4 4 7 7 3 1 1 2 5 2 0 1 2 1 4 2 3 3 3 3
20 20 20 20 19 18 17 17 17 16 16 15 14 14 14 13 12 12 11 11 10 7 8 8 8 8 9 9 10 10 6 3 5 6 18 2 10 7 7 6 8 9 6 3 5 4 4 0 0 2 3 1 2 0 0 0 1 4 2 2 4 5 4 8 6 7 3 1 5 4 3 4 5 8 3 3 1 1 1 2 2 2 4 3 3 3 4 8
20 19 20 19 19 17 17 17 17 16 15 15 14 14 14 13 12 12 11 10 10 9 9 9 9 9 8 7 7 9 6 3 3 10 16 15 10 9 9 9 8 8 4 2 4 7 6 7 5 3 3 3 6 2 2 0 2 1 4 2 3 9 2 4 5 8 1 6 7 5 3 3 1 3 2 2 3 1 6 5 2 3 6 7 1 5 8 9
20 20 19 19 19 17 18 18 17 16 15 15 14 14 13 12 11 12 11 11 10 10 10 10 10 9 7 7 7 5 3 3 3 4 1 7 13 12 11 11 9 6 3 2 3 5 3 7 6 3 1 4 2 1 1 1 0 1 3 4 2 5 3 2 6 2 3 2 6 5 2 2 1 3 3 4 5 4 6 8 10 11 10 8 5 8 10 12
22 20 20 20 18 18 19 18 17 16 15 15 15 14 12 11 12 12 12 12 11 11 10 10 10 9 7 6 6 6 6 2 4 2 3 7 8 10 10 10 10 5 2 5 7 4 4 6 4 3 2 1 2 1 0 1 0 4 0 0 3 3 1 1 5 3 3 0 9 5 9 6 2 1 3 9 6 7 9 7 11 8 6 12 11 11 11 11
20 19 19 19 18 18 19 18 17 15 16 17 16 14 14 13 13 12 12 11 12 11 10 10 10 9 8 6 5 4 4 4 1 2 5 5 8 9 9 10 10 8 8 4 3 3 6 2 6 2 1 1 3 6 1 1 2 2 1 0 2 2 1 1 1 4 6 4 7 8 4 5 5 1 1 5 10 4 4 1 4 6 6 4 7 12 13 14
20 19 18 17 19 20 19 17 16 16 17 16 15 14 14 13 13 12 12 12 11 11 11 9 9 10 9 9 4 4 5 5 1 2 4 7 9 8 9 9 10 8 5 4 2 3 1 5 4 3 4 3 1 1 1 1 2 3 3 1 0 2 1 1 1 4 2 9 6 3 3 4 4 4 1 4 6 2 2 2 3 3 7 10 12 14 17 19
20 19 18 18 18 18 18 16 15 17 16 16 15 15 14 14 13 12 12 11 12 11 11 11 9 10 11 4 4 3 2 6 2 2 3 8 9 8 8 5 7 5 5 6 6 4 4 8 8 3 3 7 3 5 1 4 3 2 2 2 1 0 1 1 3 5 3 2 1 3 6 1 4 2 3 8 9 6 2 5 6 6 7 8 10 12 13 14
20 19 19 19 17 17 16 15 17 17 16 16 16 15 13 13 13 12 10 11 11 11 11 11 11 10 7 0 4 4 7 3 1 4 6 7 7 7 2 2 2 7 3 3 1 6 6 3 3 5 4 2 2 4 1 6 3 2 2 4 1 1 1 1 7 5 3 3 2 6 1 1 2 1 4 9 4 4 2 5 6 6 6 9 11 13 14 15
21 19 19 18 18 17 15 15 16 17 15 16 15 14 13 14 12 11 11 11 11 10 11 11 10 8 4 3 3 6 3 3 1 4 6 8 7 8 7 3 5 6 5 2 2 4 4 5 7 5 8 3 3 2 0 1 1 4 6 4 5 1 0 4 4 2 1 3 0 5 1 1 1 2 7 2 2 2 4 3 2 7 8 8 8 10 11 14
22 20 19 19 19 17 17 17 16 17 16 15 16 15 15 13 12 11 10 11 10 9 9 10 8 7 3 2 8 9 1 4 0 4 7 7 8 8 3 4 4 5 4 1 4 6 3 7 3 5 0 4 4 0 1 1 5 6 11 6 8 4 6 1 5 3 1 2 2 5 1 1 1 1 7 1 3 1 6 5 4 5 7 8 8 10 10 11
22 21 19 19 18 19 17 16 16 17 16 16 15 14 13 13 12 10 10 9 9 9 10 8 8 3 1 2 8 6 4 1 3 4 5 6 4 3 4 6 5 5 6 4 5 3 3 4 7 2 2 3 2 2 1 2 3 5 1 4 2 3 3 6 2 2 1 0 0 0 2 1 0 7 4 2 3 3 3 5 5 6 6 5 7 8 9 11
22 21 19 19 18 18 18 17 17 17 18 17 15 14 13 12 11 11 9 9 9 9 9 9 6 2 3 3 8 2 2 3 4 6 4 5 5 4 3 2 3 3 3 3 3 2 3 7 6 6 0 4 4 2 3 6 1 3 6 5 3 1 2 1 2 2 2 0 1 1 3 7 11 12 4 2 4 3 2 4 6 6 5 5 5 8 8 8
22 20 20 19 18 18 19 18 17 18 19 17 15 14 13 12 12 11 10 8 9 9 9 9 5 3 2 3 4 2 2 3 4 6 3 2 5 1 3 4 5 2 1 2 1 1 5 1 6 6 2 5 2 1 5 2 4 7 1 5 2 4 2 2 1 3 5 0 2 1 3 6 7 8 4 3 0 3 4 6 6 6 6 6 6 7 8 9
22 20 19 19 18 18 18 19 18 19 18 17 16 14 13 12 11 10 9 8 9 10 10 7 3 4 2 4 2 3 6 2 4 3 5 5 4 3 2 2 4 4 3 3 3 1 3 5 6 3 2 2 5 5 3 3 4 3 6 1 1 5 3 4 1 2 5 0 3 4 2 8 8 6 4 4 1 4 4 5 6 6 7 7 6 7 8 10
22 20 20 19 19 18 18 18 18 19 18 18 15 14 13 12 10 9 8 7 10 10 3 5 1 3 4 2 1 4 2 3 4 3 1 4 5 2 3 5 3 3 1 3 2 3 4 6 7 3 3 4 6 7 5 4 1 5 3 1 3 1 2 2 1 1 3 2 3 2 6 4 4 3 1 2 1 3 4 6 6 7 7 7 7 7 8 8
23 21 19 19 19 18 18 18 16 17 17 17 15 14 12 11 9 8 8 8 4 2 2 3 3 1 3 1 3 1 3 2 1 2 2 1 3 7 6 4 2 4 4 3 2 3 5 5 2 2 4 5 3 6 7 1 1 2 3 3 3 6 2 2 2 1 2 1 4 2 2 7 3 5 5 6 0 1 3 7 7 7 7 7 6 7 8 9
23 22 20 19 19 18 18 17 17 16 16 16 14 13 9 11 10 10 7 4 1 2 3 1 2 2 7 1 2 3 0 3 2 5 4 1 4 5 4 3 1 5 4 3 3 2 2 2 2 5 2 2 3 4 9 9 9 6 4 3 1 0 2 2 3 1 0 2 4 0 4 12 12 9 9 3 1 1 5 6 6 7 7 7 7 7 9 9
23 22 21 20 19 18 18 16 17 18 17 18 16 14 12 8 3 2 5 2 4 3 2 4 5 6 4 7 2 2 1 3 4 3 2 4 2 3 3 3 5 8 3 3 2 3 2 5 4 4 7 3 7 7 8 8 6 12 10 5 5 7 4 3 4 2 1 3 5 5 9 10 11 10 11 1 2 3 7 5 7 8 8 8 8 8 8 10
22 22 21 21 19 18 18 18 19 18 20 13 10 7 3 4 2 2 1 1 1 4 0 6 4 1 0 2 5 1 2 2 5 4 2 1 6 2 4 2 3 5 5 5 2 2 1 5 7 9 9 8 7 7 5 5 8 5 4 5 5 7 1 3 2 2 0 1 6 5 6 6 12 11 11 8 2 4 6 9 9 8 8 8 8 9 10 10
22 22 22 21 20 19 19 21 19 17 20 6 8 6 6 10 12 5 4 2 3 3 3 0 5 1 0 0 1 4 6 2 2 2 1 1 2 8 1 2 2 3 0 1 5 0 3 5 9 6 7 10 8 6 7 9 4 8 6 6 2 0 2 1 0 2 3 2 2 1 3 11 14 11 11 7 2 10 11 10 10 11 10 8 9 10 11 12
23 22 22 21 20 19 19 20 18 16 11 5 2 2 1 1 1 2 6 4 2 2 4 0 3 0 1 3 3 2 2 4 4 2 0 1 5 7 2 3 4 8 0 2 3 2 2 10 3 4 3 8 6 4 3 6 6 4 6 4 4 3 2 2 1 1 3 2 6 2 2 10 11 10 11 7 9 7 7 8 7 7 9 8 8 10 10 6
23 22 22 22 20 20 20 19 15 13 5 5 3 1 2 2 3 4 4 4 4 0 1 2 5 2 1 2 1 1 0 3 5 3 3 0 4 3 6 4 4 4 1 4 9 5 4 5 5 4 7 9 3 3 7 7 6 6 6 5 6 4 5 3 3 0 3 2 2 0 3 10 8 7 12 12 7 7 7 7 10 7 10 11 10 6 7 8
23 22 22 22 22 21 21 18 16 8 2 5 3 4 1 0 2 0 2 3 4 1 1 1 2 3 4 3 3 3 2 0 4 8 2 4 8 3 5 4 5 4 8 6 7 10 7 1 1 7 7 11 6 2 6 5 3 1 4 4 4 3 3 3 4 1 1 0 2 0 4 9 4 7 8 3 3 3 7 6 9 10 11 9 6 8 8 11
23 23 23 23 22 22 20 18 7 4 4 3 3 3 4 2 0 0 7 2 3 1 1 1 3 1 2 1 0 1 1 2 0 0 0 4 4 4 3 1 4 6 5 3 4 3 3 1 4 5 3 4 8 4 6 8 4 0 4 7 6 6 8 1 4 5 2 2 3 1 2 5 4 7 11 7 9 5 3 3 10 9 5 4 8 12 7 10
23 24 23 23 22 22 21 8 4 6 6 4 3 1 2 2 1 0 8 3 2 2 2 5 2 3 3 1 1 3 4 2 1 1 2 2 2 4 2 1 1 8 4 6 6 3 3 1 2 7 6 2 4 6 4 5 7 3 5 6 4 7 8 8 6 3 2 3 2 1 6 5 6 3 1 4 7 10 8 5 11 8 6 5 9 8 7 8
24 23 24 24 25 25 12 3 6 8 6 4 3 3 0 1 1 0 5 4 3 4 6 1 2 1 2 2 3 4 6 3 1 1 2 3 1 1 6 4 2 4 3 2 2 4 2 2 4 4 5 6 5 4 3 8 7 4 1 6 8 10 10 9 8 4 1 1 1 4 3 2 6 9 4 5 4 9 8 9 9 7 5 7 7 7 7 7
24 24 23 25 27 16 4 9 11 7 3 1 1 7 3 2 1 1 6 4 2 2 3 2 1 2 1 0 3 2 1 3 4 3 0 2 1 2 2 8 7 7 2 4 9 1 4 3 4 5 2 4 8 4 5 7 6 2 1 4 7 9 6 7 6 5 1 1 2 2 2 1 5 8 4 3 3 5 8 8 9 4 5 6 6 6 6 7
26 24 25 25 21 17 12 9 7 5 3 2 4 6 3 3 2 6 4 3 1 2 3 5 4 1 2 0 3 1 1 3 1 0 2 1 4 2 3 4 5 7 4 2 6 1 1 4 7 7 8 8 3 1 1 6 4 1 6 8 8 8 7 5 4 5 1 3 5 3 2 3 8 6 5 3 1 6 8 10 6 5 5 5 6 6 5 5
26 25 26 24 16 9 5 5 5 3 3 5 6 6 3 2 4 3 3 5 3 3 1 1 3 6 3 8 1 2 4 1 2 1 2 3 1 6 3 3 5 5 2 5 6 3 1 3 4 4 4 1 5 3 1 2 3 10 5 9 6 8 4 3 6 3 3 1 6 3 5 1 5 5 7 5 7 8 6 6 4 3 3 4 5 5 5 6
26 26 24 23 11 7 8 3 3 3 5 6 6 7 3 6 5 4 6 7 3 1 2 1 3 3 9 12 7 2 5 1 1 4 2 0 2 3 3 3 3 5 4 4 4 4 1 1 1 0 3 3 3 5 6 3 5 6 4 5 8 5 7 5 4 5 2 5 4 2 1 0 6 6 6 8 5 3 3 2 1 1 3 4 4 4 4 5
26 25 25 13 10 9 8 7 7 5 7 7 7 6 5 5 2 8 4 1 3 6 7 6 3 5 14 11 8 8 9 2 2 4 9 6 7 8 7 8 6 5 2 5 5 1 2 2 1 3 3 6 3 10 4 1 4 3 7 8 9 1 4 1 2 2 4 5 1 3 1 1 10 9 6 6 10 7 8 7 6 3 6 7 5 6 6 5
25 25 24 11 12 5 4 8 8 6 7 4 7 3 5 6 9 11 2 5 2 6 6 5 8 8 7 8 7 4 2 9 3 2 5 1 6 3 1 1 4 6 8 4 4 2 2 1 2 1 2 3 3 11 2 1 1 4 9 7 7 3 2 3 3 1 5 5 4 1 1 4 5 7 13 16 11 4 7 9 8 7 8 7 7 7 9 8
27 26 13 10 6 4 7 10 9 9 8 4 8 5 4 6 10 7 5 5 2 2 7 4 4 3 8 12 7 8 5 3 8 4 4 5 5 6 4 1 4 1 6 2 8 8 4 3 6 5 3 1 1 3 11 8 9 7 0 8 9 9 6 6 4 6 7 5 2 3 2 7 2 2 1 9 5 3 4 5 4 6 8 7 7 8 9 7
27 17 14 6 5 3 7 9 10 10 8 8 7 10 14 14 8 13 10 6 1 1 2 1 11 8 5 3 2 3 3 1 0 6 3 8 7 5 9 8 3 4 2 10 4 2 6 3 1 2 2 1 6 1 2 5 5 1 2 4 6 7 6 3 4 3 2 2 1 1 6 4 5 3 8 6 7 7 6 6 3 9 6 4 7 6 6 6
20 10 12 7 7 4 6 8 8 9 10 10 10 9 15 14 9 7 7 5 2 5 5 7 4 7 4 1 2 4 2 4 5 4 1 5 3 10 7 6 9 9 8 7 4 4 2 4 2 6 1 1 0 0 0 1 8 5 4 4 4 2 11 7 2 1 1 5 5 2 7 7 8 7 11 2 3 7 1 2 1 7 6 2 5 5 5 6
11 12 9 8 7 5 7 8 8 9 6 8 12 14 14 1 2 5 4 11 6 15 8 11 5 8 8 7 5 7 5 5 4 4 5 3 3 4 3 5 5 6 6 10 1 3 9 3 2 3 1 1 0 0 1 4 1 8 1 7 2 3 6 5 3 2 3 3 6 2 7 6 4 7 5 4 3 8 3 5 4 4 4 5 5 4 5 7
10 6 8 9 8 7 7 8 10 7 5 7 13 17 3 6 1 5 4 9 5 6 7 9 1 7 7 6 5 7 2 5 7 3 6 7 4 7 9 4 4 11 9 2 5 3 6 3 1 1 1 4 2 0 5 2 2 2 3 3 5 2 2 1 5 1 1 2 4 3 3 5 6 8 4 1 6 9 7 3 2 4 5 7 5 5 7 6
6 7 8 9 9 9 8 9 8 9 8 8 12 13 2 1 3 6 9 11 3 6 10 4 6 3 4 8 5 2 5 6 7 7 8 4 6 4 13 8 5 5 6 6 2 1 1 4 1 1 2 1 2 2 7 3 3 2 2 3 0 2 1 4 6 3 5 4 2 6 3 7 8 8 9 8 7 9 5 2 6 7 8 6 5 4 4 2
9 5 4 8 10 9 10 10 8 7 7 17 17 7 1 3 1 1 4 15 4 6 4 6 2 7 4 3 8 9 5 5 10 5 4 3 8 1 6 4 5 4 6 1 3 3 2 1 3 1 2 2 2 3 8 10 8 2 2 2 0 2 2 4 2 3 4 5 6 2 4 6 7 8 9 12 10 7 6 4 6 6 7 7 6 6 5 3
2 3 4 8 10 11 12 9 11 15 15 9 1 1 1 4 1 2 4 6 4 4 4 6 8 8 7 6 3 3 4 5 6 7 4 1 8 4 7 9 8 7 3 2 4 2 3 2 7 2 2 3 5 1 2 3 3 5 9 9 10 8 4 4 5 2 2 3 4 4 8 6 10 4 10 10 5 4 4 2 1 2 5 9 6 5 4 5
7 6 5 12 12 15 13 15 9 8 4 8 8 4 3 2 5 5 2 1 5 3 3 6 1 4 5 6 7 7 6 4 4 5 5 7 7 5 2 6 6 13 13 10 11 3 5 3 8 4 5 4 2 1 1 1 1 1 2 5 6 2 6 4 5 6 3 0 6 3 0 10 6 3 5 6 4 4 2 4 4 3 3 6 6 6 4 3
3 3 7 15 12 15 10 7 6 7 7 3 2 2 2 2 4 3 6 2 3 1 2 2 6 6 2 3 2 5 12 6 11 9 4 6 4 8 4 9 9 10 6 1 6 2 4 5 5 2 1 3 3 2 1 1 0 1 3 1 5 9 8 8 4 6 8 3 2 1 1 10 6 1 4 6 5 3 2 6 6 4 2 4 6 5 6 5
2 3 8 8 13 12 11 13 15 15 9 0 1 1 2 2 5 5 5 5 4 3 5 3 2 0 4 2 4 8 9 3 5 8 5 2 3 2 10 9 16 7 10 9 12 9 5 4 9 3 2 2 2 1 1 1 1 4 5 6 3 4 7 3 5 1 3 8 9 7 7 10 4 3 2 1 4 5 3 7 6 4 3 4 6 5 4 4
2 2 3 7 11 11 14 4 8 11 7 4 4 5 4 1 2 3 5 6 1 3 4 2 3 5 2 2 3 1 7 7 3 6 1 0 3 1 4 12 13 10 6 1 4 6 3 3 9 8 9 8 5 5 5 8 12 4 0 3 5 8 9 5 3 2 5 3 6 4 5 12 3 2 1 2 2 4 3 4 5 5 5 7 6 6 4 3
0 4 0 4 1 9 3 2 2 8 10 9 6 3 1 2 1 3 2 2 1 2 2 4 2 5 4 5 4 4 7 3 2 4 7 5 3 1 4 8 12 8 6 10 8 10 3 2 5 8 12 14 14 14 5 7 7 4 8 12 10 6 4 4 6 5 10 5 8 9 10 14 3 2 3 5 4 7 5 4 8 8 8 7 4 4 4 4
1 0 3 8 3 2 3 2 1 5 10 7 7 3 6 3 2 1 2 3 2 3 2 1 4 7 3 8 7 7 9 10 0 4 8 9 1 1 3 6 3 1 8 6 8 7 3 3 6 6 8 9 8 3 3 10 8 7 8 7 8 9 9 9 9 11 5 10 6 8 10 7 13 4 6 8 7 6 5 5 6 6 8 8 7 5 6 5
1 0 2 3 1 9 10 9 8 5 3 8 3 3 7 5 3 4 2 1 1 1 5 1 1 8 13 12 7 5 4 4 3 5 2 0 4 0 3 2 4 1 2 3 2 5 6 8 7 7 11 12 3 4 4 5 7 8 11 10 11 12 10 13 13 12 10 10 14 18 13 13 17 9 11 10 9 10 12 11 9 6 2 2 4 4 3 4
1 2 1 4 2 4 4 4 11 6 8 13 1 4 6 9 8 4 4 1 1 2 1 5 8 8 11 10 10 6 8 7 7 5 5 6 7 4 3 2 2 1 3 2 3 1 4 6 6 7 11 11 2 4 0 6 2 3 8 13 14 14 15 17 17 13 13 12 16 21 10 14 17 7 12 10 10 5 1 1 0 3 7 5 4 4 5 7
3 2 1 3 4 2 3 9 10 10 7 11 9 5 6 11 12 2 0 4 3 3 1 3 6 6 8 10 11 9 12 15 13 11 3 5 1 1 5 5 4 1 1 4 4 1 4 3 5 4 5 7 3 3 2 1 5 5 1 4 9 13 15 16 16 16 11 14 15 17 6 10 10 8 9 6 1 1 2 4 6 8 6 4 6 7 8 8
1 1 1 4 3 1 1 6 9 10 6 5 10 5 4 10 13 7 2 0 2 4 4 9 5 5 2 5 7 11 12 14 11 13 15 12 11 8 7 4 7 7 4 3 2 0 2 3 3 3 5 5 1 6 3 4 3 3 3 5 9 11 10 11 12 14 12 15 17 10 10 13 12 11 7 6 2 4 7 9 8 8 8 7 8 10 9 8
1 1 2 1 3 5 4 1 5 8 10 9 9 6 4 5 3 6 3 2 1 3 7 8 8 7 2 6 13 14 1 0 1 1 11 5 1 8 7 7 15 13 8 9 2 6 5 5 4 2 6 5 1 3 8 7 3 1 4 11 19 17 19 16 14 8 9 16 12 10 17 20 3 9 8 9 9 10 8 8 9 10 11 10 11 10 7 8
Wind_Direction
175 171 180 184 187 188 182 187 193 192 191 189 190 188 178 177 184 182 186 188 188 182 172 169 165 167 169 173 165 160 158 136 157 206 218 235 188 209 173 129 162 151 154 104 74 121 302 15 123 339 47 53 315 88 265 61 47 52 78 115 87 202 146 198 176 188 204 127 214 186 199 141 172 181 179 112 42 58 359 216 304 310 260 268 283 239 293 236
174 171 177 180 184 185 183 187 188 186 188 186 186 184 184 183 180 182 181 189 186 185 173 177 173 173 179 184 167 152 124 143 227 222 230 181 212 181 178 155 141 153 124 149 171 186 154 262 292 36 98 88 321 24 359 301 72 90 138 95 207 179 238 163 187 180 115 234 153 187 182 180 203 143 207 120 281 24 146 270 11 313 278 246 305 267 188 168
170 170 176 178 180 182 183 185 182 180 182 184 182 180 184 181 177 177 181 183 185 182 175 181 185 179 182 182 166 132 131 216 245 244 253 216 212 174 158 151 146 157 163 168 203 164 175 192 173 100 9 103 1 169 49 323 60 210 114 157 249 204 223 206 170 180 213 135 135 153 189 156 222 144 150 208 159 79 191 201 296 256 241 209 316 144 165 166
169 170 173 176 175 180 184 181 178 175 178 181 182 181 178 169 176 171 175 181 179 182 182 184 185 184 174 178 158 119 156 242 234 244 310 326 208 167 160 150 147 135 105 49 157 152 117 91 81 97 63 75 309 32 135 292 206 227 83 158 217 179 124 220 189 211 183 146 142 140 103 161 229 195 166 164 122 253 266 232 184 206 218 192 178 163 165 167
174 169 172 175 172 178 179 175 175 176 181 179 176 178 167 164 175 172 176 178 178 184 190 185 180 176 174 170 150 131 185 43 259 206 284 290 198 144 145 144 131 120 133 139 90 65 116 129 108 43 91 175 346 36 308 340 105 95 75 196 154 124 57 199 190 160 138 196 115 135 137 210 99 80 124 158 176 217 212 228 215 216 194 159 169 173 169 171
172 170 171 172 170 169 172 172 171 179 180 173 171 168 167 169 171 173 174 175 178 185 191 184 173 166 173 162 128 180 234 164 257 323 331 51 126 123 131 126 127 117 116 100 120 167 119 57 111 147 27 86 181 149 231 154 337 152 313 344 187 204 146 190 214 198 137 125 138 150 198 108 143 170 211 188 204 232 228 235 238 215 169 140 142 155 172 176
170 170 169 167 166 169 169 169 171 182 172 166 165 166 163 163 170 171 173 172 175 175 190 182 169 167 171 134 165 214 210 261 31 286 2 94 97 104 111 116 117 116 119 116 137 159 155 125 110 167 100 69 310 137 214 149 27 104 177 141 199 205 112 233 172 136 108 133 176 187 110 138 146 178 137 215 240 206 49 292 242 180 124 144 150 174 177 185
168 168 164 161 163 167 166 167 174 176 167 166 165 159 161 163 169 169 168 172 172 177 178 182 174 178 154 153 145 214 233 252 210 257 129 94 89 92 96 75 113 116 135 171 166 159 147 140 160 139 100 151 210 137 202 99 18 110 109 209 171 353 330 41 138 107 126 92 32 120 133 240 178 171 102 245 235 247 307 69 97 117 136 150 163 178 190 193
167 164 162 161 161 162 163 166 173 167 165 167 159 157 164 166 168 167 168 171 179 175 177 173 180 185 174 60 156 118 234 239 177 157 110 102 112 107 110 105 130 131 147 120 274 179 139 242 106 182 214 172 160 100 233 136 290 147 142 123 147 85 357 119 78 80 98 113 98 110 37 328 234 203 240 240 250 296 190 77 115 125 146 171 182 186 185 192
164 163 160 158 158 160 158 166 166 160 162 167 161 157 165 165 161 162 171 173 174 175 170 171 178 174 135 128 91 183 250 131 73 119 116 118 114 106 45 128 128 115 125 199 92 135 190 203 170 183 122 74 130 130 198 142 216 130 103 100 104 325 24 352 117 62 60 111 305 136 137 96 312 111 269 19 277 330 110 99 133 155 179 194 191 193 199 195
165 160 157 158 160 157 157 163 159 161 164 166 163 161 166 161 154 163 166 171 169 171 166 168 162 147 161 147 148 207 159 104 170 121 125 128 113 124 174 156 161 129 120 122 207 194 200 153 145 106 57 218 116 344 113 202 123 100 134 100 46 23 78 6 73 40 113 58 83 127 115 291 325 96 231 228 347 261 153 178 187 194 194 195 202 202 205 210
164 159 158 160 159 156 153 157 158 162 162 165 161 163 166 160 158 163 164 163 168 158 158 159 161 134 86 129 202 204 192 174 127 131 131 128 116 177 179 168 172 153 145 176 240 240 185 172 142 107 171 135 115 125 79 144 72 160 159 92 329 15 46 0 73 342 351 121 122 202 93 292 347 226 250 271 324 117 147 183 220 228 220 201 207 210 210 213
161 159 157 159 158 154 149 153 163 164 161 158 160 165 162 163 157 166 160 156 158 156 151 142 108 88 99 135 239 214 153 122 123 117 87 73 104 54 77 115 122 129 148 144 226 230 162 152 147 94 188 96 152 150 163 77 13 114 43 116 51 31 17 342 307 330 96 251 55 317 207 257 240 238 238 328 3 85 126 224 224 235 239 227 211 218 224 217
159 159 158 157 157 154 153 152 164 166 159 157 159 160 163 161 167 165 159 153 154 145 145 129 115 106 119 239 257 227 185 126 125 99 121 156 97 46 57 53 75 64 19 101 77 143 120 83 95 116 119 98 138 217 83 358 14 143 198 54 125 127 248 307 9 317 118 234 19 150 202 282 274 284 265 336 349 154 206 231 239 240 250 241 229 227 225 228
158 159 158 156 155 153 154 157 166 162 158 156 160 160 163 167 164 160 157 142 147 140 123 96 82 111 110 264 262 300 132 120 152 189 172 133 125 73 55 67 52 41 80 107 136 108 129 112 97 64 78 282 106 83 49 39 13 22 94 268 337 154 262 297 54 356 163 331 27 103 303 248 256 255 273 318 4 159 218 247 244 245 242 242 243 241 243 236
157 157 157 156 154 153 154 158 165 164 157 156 155 162 163 160 159 156 150 145 144 134 140 106 179 133 100 278 189 115 102 152 208 159 233 133 150 139 161 116 125 36 31 34 64 110 47 84 73 171 117 35 73 103 83 82 343 0 110 213 187 117 226 342 242 22 328 118 6 159 216 324 315 265 215 336 82 150 212 259 259 253 248 244 241 243 251 269
156 156 156 155 154 154 155 160 158 160 157 153 155 157 156 157 152 146 132 113 118 110 108 168 114 114 161 284 91 175 211 217 125 97 98 21 118 143 112 82 75 71 62 77 22 57 356 68 282 49 30 134 163 118 102 12 355 224 20 145 210 160 193 244 307 268 20 106 201 15 199 230 228 266 274 310 166 124 207 252 258 252 249 246 243 239 245 246
156 155 155 155 153 154 155 155 156 151 151 152 154 151 150 149 143 115 94 63 74 111 91 103 122 99 265 78 193 226 308 135 165 131 77 302 122 115 98 110 78 107 108 80 353 86 324 69 29 175 49 60 130 138 151 201 171 189 181 117 218 306 222 212 155 225 40 14 180 274 237 263 263 276 275 257 171 184 244 248 263 266 257 251 238 238 238 242
155 154 154 153 154 152 152 152 147 150 153 153 147 146 130 110 87 79 101 108 122 93 117 193 138 156 201 205 187 18 219 188 117 83 160 116 48 102 70 94 109 124 117 99 245 113 349 76 40 89 174 156 200 180 177 201 175 187 178 167 123 136 189 204 244 280 183 165 213 192 216 245 266 278 281 224 169 197 258 278 274 262 259 258 248 246 242 238
155 153 152 153 151 150 149 153 151 154 155 149 144 129 89 103 106 101 347 38 106 171 152 163 160 196 69 8 134 265 294 278 121 336 127 310 121 80 39 85 36 63 119 170 163 139 117 137 179 195 195 184 197 191 176 189 160 118 83 106 157 154 267 284 279 273 64 101 237 229 267 275 270 258 268 275 230 265 266 267 260 255 250 245 245 240 243 243
155 152 151 151 150 148 149 155 158 158 163 152 152 142 163 179 140 185 163 216 183 165 59 117 176 126 267 128 329 160 128 5 51 114 163 134 119 128 243 48 98 128 38 162 143 205 85 165 224 205 192 186 177 122 110 74 63 143 141 141 151 201 132 220 127 350 328 156 291 35 293 264 260 271 267 276 303 270 255 257 259 258 246 242 235 245 239 241
155 154 151 149 148 148 151 155 157 154 119 102 103 159 188 175 221 207 122 138 220 181 104 144 130 358 335 229 256 209 47 90 64 80 350 155 158 150 256 112 151 170 166 106 52 101 160 205 233 198 157 94 88 100 74 118 111 51 140 145 116 255 237 300 309 357 336 114 262 12 283 266 267 267 269 250 236 241 229 218 233 229 252 244 236 240 250 267
155 154 151 147 146 148 153 154 137 120 115 124 160 134 207 228 279 245 107 92 126 279 87 69 154 238 334 309 277 270 70 126 167 236 203 100 134 183 139 120 138 123 97 165 166 142 196 277 235 151 136 116 54 80 99 74 66 111 92 107 194 226 142 239 264 3 5 96 319 196 310 280 284 272 261 258 224 250 260 257 258 236 247 245 237 234 245 250
157 153 150 148 145 150 152 136 123 122 63 144 136 202 186 171 298 126 69 143 163 262 126 229 142 160 194 148 212 114 101 226 115 189 308 128 150 173 121 147 127 130 187 190 167 174 187 252 308 150 158 145 145 157 129 134 174 331 144 137 143 149 235 147 199 120 324 29 74 107 312 294 316 275 277 295 348 316 283 304 269 256 239 257 295 279 237 249
156 153 151 148 146 146 141 120 132 128 121 84 277 222 173 225 117 119 97 44 25 92 302 10 127 239 195 32 358 165 185 82 183 136 203 130 140 109 177 173 119 201 171 169 119 148 268 307 128 114 139 128 134 163 199 143 189 267 233 177 186 180 151 88 119 110 27 282 18 66 307 301 304 273 240 293 337 314 281 310 266 256 260 256 253 253 256 247
154 155 151 147 144 137 126 122 153 127 135 183 214 240 192 183 308 117 93 70 180 250 40 202 149 222 138 246 63 155 120 132 258 221 102 215 172 133 100 79 115 205 150 140 164 172 200 341 143 164 149 122 154 181 213 158 168 135 258 167 144 142 131 132 137 84 133 149 345 12 182 265 327 316 265 313 323 290 296 267 264 270 268 261 251 258 255 252
155 153 151 147 142 138 141 185 132 130 125 257 221 161 149 170 264 13 67 5 1 203 151 258 76 221 58 206 145 130 129 242 37 37 74 333 148 333 136 191 40 30 153 152 61 245 93 71 87 75 108 135 135 215 232 144 123 218 252 131 117 121 142 169 142 131 162 263 275 52 109 184 306 284 269 280 293 289 305 282 267 264 276 260 258 258 259 261
153 152 150 147 145 150 86 118 144 160 197 202 181 145 125 203 118 46 78 103 243 149 134 233 219 354 100 282 74 131 203 156 104 224 67 291 116 14 100 194 167 167 182 115 193 293 122 146 151 140 133 133 190 207 190 152 137 222 220 156 141 149 150 125 110 115 152 113 258 333 339 277 252 267 305 351 311 292 279 269 262 284 279 273 278 272 267 261
154 151 148 146 144 122 128 136 146 175 219 168 161 118 144 91 84 115 127 118 253 79 259 110 268 63 34 320 75 88 84 16 116 256 313 36 27 169 156 197 123 121 37 177 182 226 332 163 204 158 146 198 225 315 201 157 122 249 117 88 91 81 73 107 100 97 351 85 263 215 14 219 276 271 320 339 266 276 261 254 266 268 266 281 296 302 295 288
151 150 147 135 111 102 72 109 149 178 128 131 141 124 84 82 107 105 100 232 124 195 151 240 140 192 145 149 181 357 114 346 105 21 32 147 338 42 21 148 120 110 96 32 77 180 247 333 194 94 195 159 128 46 119 357 120 132 125 94 52 43 34 30 65 85 71 328 253 255 309 158 301 264 221 165 215 201 243 297 298 294 301 284 261 269 296 306
151 151 145 140 138 143 125 114 194 189 150 141 143 114 106 43 138 111 174 223 66 68 27 139 184 102 150 153 170 288 90 103 119 141 118 342 28 50 146 63 50 57 68 28 46 331 22 351 55 284 79 118 99 72 28 75 106 124 117 130 86 9 6 28 344 30 126 261 263 288 262 350 190 292 278 243 276 234 189 204 200 276 286 281 295 299 296 301
151 148 144 146 138 156 144 172 175 162 149 160 127 122 122 100 1 181 199 67 145 199 164 187 248 156 182 174 144 171 142 71 127 153 155 177 153 152 205 153 170 98 210 175 188 359 50 95 252 20 214 115 135 87 355 358 344 92 96 103 115 218 37 264 6 240 210 200 265 333 202 7 240 226 255 292 272 254 222 217 223 233 277 288 288 306 311 306
150 145 147 132 150 140 137 140 135 143 127 141 121 110 125 127 189 211 156 185 253 143 224 143 172 179 174 146 179 159 309 155 205 152 104 5 135 225 336 170 187 140 186 210 99 80 272 269 4 315 35 225 144 123 132 190 279 115 140 141 107 109 93 205 266 293 317 288 272 308 282 269 261 284 244 246 249 223 223 229 237 236 248 267 285 313 320 312
147 146 137 157 142 129 142 133 143 132 121 133 136 86 66 154 219 180 156 209 153 356 110 134 83 80 151 178 192 165 143 325 157 168 145 157 136 179 232 278 142 92 81 144 156 184 137 297 245 150 192 146 149 171 175 159 158 208 27 149 174 148 156 196 186 182 211 196 282 278 79 232 118 254 262 234 258 249 264 256 259 264 259 269 289 293 289 291
145 136 133 125 80 89 135 141 142 131 116 134 148 170 169 203 201 169 189 187 266 62 69 142 136 140 205 5 339 261 102 130 163 110 140 144 190 185 182 200 239 116 145 135 251 88 201 193 290 316 255 20 168 242 114 105 57 267 168 73 102 211 138 135 207 145 157 133 51 252 216 192 179 274 276 255 278 279 260 268 277 269 266 293 300 295 292 296
131 146 136 132 130 171 141 147 132 124 144 152 155 184 199 195 194 179 195 125 134 125 117 63 55 148 176 100 352 235 334 117 216 110 175 194 211 189 192 190 187 188 153 168 179 168 26 222 341 312 69 89 263 160 312 144 168 222 101 183 208 113 100 105 53 30 100 51 254 160 312 288 297 316 278 354 324 280 232 256 226 260 272 308 270 288 287 274
132 140 130 141 134 155 147 140 129 119 142 171 170 195 205 192 176 113 157 155 179 129 129 134 223 149 178 200 181 197 216 80 191 135 212 149 274 198 198 244 170 187 213 131 251 207 156 214 358 58 142 359 344 228 83 40 155 99 167 224 190 149 126 129 175 350 63 166 259 90 227 294 25 283 324 335 267 265 240 242 240 263 287 258 248 264 254 255
134 122 108 130 146 144 129 128 119 111 122 175 201 206 42 163 268 113 143 100 124 130 130 155 239 109 194 144 216 186 253 177 194 193 173 179 234 190 181 190 196 186 192 290 160 229 118 80 359 323 171 282 29 351 53 7 54 145 195 194 116 202 226 306 95 203 152 249 267 298 279 260 193 243 336 254 211 253 243 207 208 220 230 234 251 260 265 274
123 126 140 142 143 135 127 112 111 135 144 188 212 211 234 154 182 158 174 128 124 121 151 223 131 236 132 182 168 153 147 189 171 189 147 239 199 206 185 165 213 201 162 146 131 110 38 145 270 342 136 277 359 86 187 194 343 28 66 84 308 100 163 120 203 169 122 239 72 288 47 247 195 220 194 237 225 226 231 165 220 218 209 217 229 232 233 235
141 138 147 139 143 126 117 117 116 143 179 194 204 208 182 121 208 329 169 136 178 135 208 156 227 133 170 195 160 166 194 146 168 216 216 185 196 279 196 227 157 161 152 169 134 162 144 110 161 280 298 95 171 193 208 169 155 60 84 195 105 14 225 101 24 117 182 172 183 211 301 271 255 213 185 217 221 215 198 205 217 225 226 224 219 188 204 225
131 97 100 139 142 130 115 114 156 181 197 216 70 104 264 172 159 172 200 13 106 350 148 149 161 165 172 116 207 175 148 153 170 187 190 177 195 215 213 188 148 154 125 43 94 186 93 173 170 134 78 211 235 257 226 193 209 179 162 188 176 119 128 161 239 38 95 110 216 133 251 268 269 178 206 218 234 218 230 200 226 237 224 210 213 232 208 175
140 138 161 153 152 140 141 158 201 194 209 186 193 175 177 169 127 160 128 339 98 129 17 103 32 123 144 170 159 165 140 166 176 174 227 184 217 215 277 148 157 148 151 180 183 226 140 127 102 162 208 178 237 302 269 215 293 168 157 227 167 170 101 116 191 233 62 13 106 162 27 271 246 216 230 243 237 229 203 228 258 265 238 215 231 239 230 219
66 97 114 145 162 151 163 169 160 181 208 230 316 25 14 45 115 206 147 234 135 111 102 121 183 127 278 128 157 158 160 186 167 199 198 209 233 199 203 156 130 161 127 57 47 233 91 101 79 335 327 313 322 273 177 192 213 300 283 137 144 198 192 183 172 174 144 145 73 2 259 260 288 235 244 245 258 265 220 242 245 273 259 221 205 198 201 210
36 126 128 159 162 162 181 178 176 201 184 50 90 169 311 169 144 156 181 200 155 160 151 144 28 245 154 141 141 171 186 150 247 194 222 187 207 186 145 156 151 173 163 196 177 193 160 235 130 126 25 345 343 20 9 346 51 219 206 199 197 73 75 134 108 75 94 211 175 143 227 273 271 313 290 283 296 289 248 250 210 225 210 203 190 203 227 243
91 10 37 132 168 172 193 218 207 179 152 150 148 157 180 76 315 174 158 183 83 155 115 206 174 151 91 157 118 91 194 179 154 228 107 174 228 79 245 159 177 172 204 135 94 151 160 173 144 154 168 167 193 194 220 223 215 195 40 100 170 154 145 134 149 157 190 272 138 168 237 249 284 323 334 273 301 293 253 245 232 229 195 191 211 225 238 273
154 129 187 78 186 195 239 77 76 168 167 163 161 227 90 102 18 340 86 91 167 85 63 132 30 97 110 135 136 161 202 243 139 191 184 217 221 276 202 198 176 188 200 137 153 139 174 135 192 193 191 200 198 204 208 79 63 166 218 174 189 185 150 107 95 110 206 191 174 224 213 259 289 280 265 261 222 218 214 190 197 211 236 244 259 260 256 237
75 73 165 145 68 343 179 100 148 174 193 166 175 161 180 169 167 35 283 138 235 148 95 85 163 154 208 153 168 184 195 194 31 125 197 193 268 211 15 165 197 25 140 122 163 98 89 186 220 205 228 223 223 175 191 164 176 201 150 185 170 156 169 156 172 214 139 92 264 238 234 246 246 250 254 242 244 252 251 231 222 231 221 212 213 239 241 247
155 76 78 275 118 184 162 208 171 165 112 157 209 137 184 153 192 154 7 10 115 300 135 331 198 191 167 174 144 160 184 201 155 213 173 164 109 289 82 7 167 256 156 150 183 134 149 198 216 173 230 229 206 168 167 152 183 178 183 161 165 174 157 183 210 216 129 198 222 240 208 216 246 194 224 219 209 204 206 209 206 208 229 264 269 267 284 281
37 96 227 328 167 335 222 134 150 139 145 176 149 154 175 182 197 186 155 115 60 222 168 170 201 202 178 162 156 173 161 165 239 227 169 180 175 137 111 42 272 32 125 119 150 195 141 221 193 178 214 230 197 136 224 158 123 130 180 175 178 169 183 195 213 207 187 215 223 242 225 216 240 205 219 226 222 227 277 313 261 224 231 206 209 254 264 262
163 149 124 54 56 41 113 132 159 149 163 179 186 209 173 190 194 182 345 134 154 230 40 183 196 178 170 177 174 177 193 196 188 197 199 124 77 53 187 177 155 33 104 156 159 270 155 259 101 136 202 246 182 83 82 138 145 188 253 174 175 181 191 202 209 218 210 241 246 249 280 289 252 192 228 245 76 126 310 298 255 242 249 205 213 231 237 242
19 21 84 129 102 184 48 140 155 169 158 178 199 189 165 195 199 180 174 184 155 168 174 197 132 99 98 185 211 212 196 199 196 188 166 155 177 207 152 242 147 141 153 120 117 100 143 233 39 97 180 274 250 173 152 99 78 106 127 158 178 182 199 217 212 216 189 215 235 252 275 262 260 148 207 229 191 191 220 233 240 248 238 227 223 236 234 239
325 250 154 138 98 156 132 33 138 148 199 198 194 171 174 190 158 157 207 272 159 159 166 147 170 116 151 168 218 223 182 78 63 191 179 176 148 174 186 161 157 154 168 175 172 139 161 123 150 138 176 235 311 147 135 122 106 285 218 200 192 200 203 207 220 222 202 207 216 216 230 239 175 176 163 214 198 219 230 235 242 249 243 224 223 234 246 251